Regional Weather Roundup
Issued by NWS

Home | Current Version | Previous Version | Text Only | Print | Product List | Glossary Off
Versions: 1 2 3 4 5 6 7 8 9 10 11 12 13 14 15 16 17 18 19 20 21 22 23 24 25 26 27 28 29 30 31 32 33 34 35 36 37 38 39 40 41 42 43 44 45 46 47 48 49 50

271
ASUS43 KBIS 260502
RWRND

NORTH DAKOTA REGIONAL WEATHER ROUNDUP
NATIONAL WEATHER SERVICE BISMARCK ND
1200 AM CDT WED JUL 26 2017

NOTE: "FAIR" INDICATES FEW OR NO CLOUDS BELOW 12,000 FEET WITH NO
SIGNIFICANT WEATHER AND/OR OBSTRUCTIONS TO VISIBILITY.


NDZ001>003-009>011-017-260600-
NORTHWEST NORTH DAKOTA

CITY           SKY/WX    TMP DP  RH WIND       PRES   REMARKS
WILLISTON      PTCLDY    69  46  43 N7        30.06R
MINOT          CLOUDY    69  55  60 W8        30.02R
MINOT AFB      PTCLDY    64  55  73 NW7       30.01R
$$

NDZ018>021-031>035-040>046-260600-
SOUTHWEST NORTH DAKOTA

CITY           SKY/WX    TMP DP  RH WIND       PRES   REMARKS
BISMARCK       CLOUDY    71  54  54 E6        30.05R
DICKINSON      CLOUDY    71  48  43 NE6       30.06R
GARRISON         N/A     65  55  70 CALM      30.03R
HETTINGER ARPT CLOUDY    70  51  51 SE5       30.11R
$$

NDZ004>008-012>016-024-026-027-054-260600-
NORTHEAST NORTH DAKOTA

CITY           SKY/WX    TMP DP  RH WIND       PRES   REMARKS
GRAND FORKS    PTCLDY    64  61  90 S7        29.97R
GRND FRKS AFB  CLOUDY    62  58  89 SW7       29.98R
DEVILS LAKE    MOCLDY    67  61  81 W5        30.01R
$$

NDZ022-023-025-028>030-036>039-047>053-260600-
SOUTHEAST NORTH DAKOTA

CITY           SKY/WX    TMP DP  RH WIND       PRES   REMARKS
FARGO          CLOUDY    71  62  73 W3        30.01R
JAMESTOWN      CLOUDY    65  58  78 S5        30.05R
$$





USA.gov is the U.S. government's official web portal to all federal, state and local government web resources and services.